Torna al catalogo

SL-12 DEB

LostHEO
NORAD 29339·DEBRIS·🇷🇺 Russia

Lanciato May 31, 1989 da Baikonur Cosmodrome

Loading…

Prossimi Passaggi (prossime 24 ore)

TLE

ObsoletoSource: Space-Track

Epoca: Feb 11, 2011, 01:31 UTC

1 29339U 89039AW  11042.06369267 -.00000190  00000-0 -34689-2 0  9996
2 29339 063.7692 052.8695 5456753 014.3601 356.5447 04.33548786 72108

Traccia SL-12 DEB in tempo reale con AllMySat

Download on the App Store